IZ3ZOD-13 Weather Reports


Display with metric or nautical units.
time (UTC)temp
F
wind
direction
speed
MPH
gust
MPH
rain 1hr
in
rain 24hr
in
rain mn
in
humidity
%
barometer
mb
20260902095603 87 29 2.0 6.0 0.00 0.00 0.00 46 1019.4
20260902095203 89 144 1.0 6.0 0.00 0.00 0.00 45 1019.3
20260902094803 88 255 1.0 2.0 0.00 0.00 0.00 44 1019.5
20260902094403 87 18 1.0 4.0 0.00 0.00 0.00 45 1019.4
20260902094215 86 25 2.0 4.0 0.00 0.00 0.00 45 1019.7
20260902093603 85 40 3.0 7.0 0.00 0.00 0.00 48 1019.6
20260902093203 85 43 3.0 7.0 0.00 0.00 0.00 48 1019.4
20260902092803 85 32 3.0 7.0 0.00 0.00 0.00 46 1019.5
20260902092403 84 19 3.0 5.0 0.00 0.00 0.00 47 1019.6
20260902092217 84 20 3.0 5.0 0.00 0.00 0.00 49 1019.5
20260902091603 84 5 3.0 7.0 0.00 0.00 0.00 48 1019.7
20260902091203 83 360 3.0 7.0 0.00 0.00 0.00 49 1019.6
20260902090803 84 22 3.0 7.0 0.00 0.00 0.00 48 1019.4
20260902090614 84 28 2.0 6.0 0.00 0.00 0.00 50 1019.6
20260902090004 84 16 3.0 6.0 0.00 0.00 0.00 48 1019.6
20260902085603 83 8 3.0 6.0 0.00 0.00 0.00 49 1019.7
20260902085203 83 11 3.0 6.0 0.00 0.00 0.00 49 1019.7
20260902084803 84 31 2.0 5.0 0.00 0.00 0.00 52 1019.5
20260902084403 83 27 3.0 7.0 0.00 0.00 0.00 51 1019.5
20260902084003 83 20 3.0 7.0 0.00 0.00 0.00 50 1019.6
20260902083603 83 17 3.0 6.0 0.00 0.00 0.00 51 1019.5
20260902083203 82 20 3.0 4.0 0.00 0.00 0.00 53 1019.4
20260902082803 82 14 3.0 6.0 0.00 0.00 0.00 50 1019.3
20260902082403 82 19 3.0 6.0 0.00 0.00 0.00 51 1019.4
20260902082003 82 23 3.0 6.0 0.00 0.00 0.00 53 1019.5
20260902081603 82 22 3.0 5.0 0.00 0.00 0.00 52 1019.3
20260902081203 81 18 3.0 7.0 0.00 0.00 0.00 54 1019.4
20260902080803 82 30 3.0 7.0 0.00 0.00 0.00 54 1019.3
20260902080403 82 27 3.0 6.0 0.00 0.00 0.00 51 1019.3
20260902080004 82 31 3.0 6.0 0.00 0.00 0.00 55 1019.4
20260902075603 81 36 3.0 8.0 0.00 0.00 0.00 55 1019.1
20260902075203 81 32 3.0 8.0 0.00 0.00 0.00 54 1019.3
20260902074803 81 28 3.0 8.0 0.00 0.00 0.00 53 1019.2
20260902074403 81 21 2.0 4.0 0.00 0.00 0.00 57 1019.3
20260902074003 80 13 3.0 4.0 0.00 0.00 0.00 55 1019.2
20260902073603 80 10 3.0 7.0 0.00 0.00 0.00 56 1019.1
20260902073203 79 9 3.0 7.0 0.00 0.00 0.00 57 1019.2
20260902072803 79 11 3.0 6.0 0.00 0.00 0.00 59 1019.0
20260902072403 79 11 3.0 6.0 0.00 0.00 0.00 58 1019.2
20260902072003 78 8 2.0 4.0 0.00 0.00 0.00 64 1019.2
20260902071812 78 7 2.0 4.0 0.00 0.00 0.00 64 1019.2
20260902071203 78 9 2.0 4.0 0.00 0.00 0.00 63 1019.1
20260902070803 78 12 2.0 4.0 0.00 0.00 0.00 64 1018.9
20260902070403 78 8 1.0 3.0 0.00 0.00 0.00 66 1019.1
20260902070005 77 4 1.0 3.0 0.00 0.00 0.00 66 1019.0
20260902065603 78 353 1.0 3.0 0.00 0.00 0.00 65 1019.0
20260902065203 77 327 1.0 2.0 0.00 0.00 0.00 66 1018.9
20260902064803 77 307 1.0 2.0 0.00 0.00 0.00 66 1019.0
20260902064618 77 299 1.0 2.0 0.00 0.00 0.00 66 1018.8
20260902064003 76 281 1.0 3.0 0.00 0.00 0.00 69 1019.0
20260902063603 76 294 1.0 3.0 0.00 0.00 0.00 70 1018.8
20260902063203 76 307 1.0 2.0 0.00 0.00 0.00 69 1018.8
20260902062803 75 305 1.0 3.0 0.00 0.00 0.00 69 1018.9
20260902062403 75 292 1.0 3.0 0.00 0.00 0.00 70 1018.8
20260902062003 75 292 0.0 2.0 0.00 0.00 0.00 69 1018.7
20260902061603 74 293 0.0 2.0 0.00 0.00 0.00 71 1018.7
20260902061203 74 335 0.0 1.0 0.00 0.00 0.00 71 1018.9
20260902060803 74 332 0.0 1.0 0.00 0.00 0.00 71 1018.7
20260902060403 73 332 0.0 1.0 0.00 0.00 0.00 72 1018.6
20260902060003 73 333 0.0 2.0 0.00 0.00 0.00 73 1018.7
20260902055603 72 336 0.0 2.0 0.00 0.00 0.00 74 1018.6
20260902055203 72 0 0.0 0.0 0.00 0.00 0.00 76 1018.6
20260902054803 71 0 0.0 0.0 0.00 0.00 0.00 76 1018.5
20260902054403 70 0 0.0 0.0 0.00 0.00 0.00 77 1018.4
20260902054003 69 0 0.0 0.0 0.00 0.00 0.00 80 1018.4
20260902053603 69 0 0.0 0.0 0.00 0.00 0.00 80 1018.5
20260902053203 69 0 0.0 0.0 0.00 0.00 0.00 80 1018.5
20260902052803 69 0 0.0 0.0 0.00 0.00 0.00 80 1018.5
20260902052403 68 0 0.0 0.0 0.00 0.00 0.00 80 1018.4
20260902052003 68 0 0.0 0.0 0.00 0.00 0.00 81 1018.5
20260902051603 68 0 0.0 0.0 0.00 0.00 0.00 81 1018.3
20260902051203 67 0 0.0 0.0 0.00 0.00 0.00 81 1018.4
20260902050803 67 0 0.0 0.0 0.00 0.00 0.00 82 1018.4
20260902050403 67 0 0.0 0.0 0.00 0.00 0.00 82 1018.2
20260902050005 67 297 0.0 1.0 0.00 0.00 0.00 82 1018.4
20260902045603 67 292 0.0 2.0 0.00 0.00 0.00 82 1018.2
20260902045415 67 291 0.0 2.0 0.00 0.00 0.00 81 1018.4
20260902044803 67 287 0.0 1.0 0.00 0.00 0.00 82 1018.3
20260902044403 67 286 0.0 1.0 0.00 0.00 0.00 82 1018.4
20260902044213 67 286 0.0 1.0 0.00 0.00 0.00 82 1018.4
20260902043817 67 0 0.0 0.0 0.00 0.00 0.00 82 1018.4
20260902043203 67 0 0.0 0.0 0.00 0.00 0.00 82 1018.3
20260902043016 67 0 0.0 0.0 0.00 0.00 0.00 82 1018.2
20260902042403 67 0 0.0 0.0 0.00 0.00 0.00 83 1018.2
20260902042003 66 0 0.0 0.0 0.00 0.00 0.00 83 1018.2
20260902041603 66 0 0.0 0.0 0.00 0.00 0.00 83 1018.1
20260902041203 66 0 0.0 0.0 0.00 0.00 0.00 84 1018.2
20260902040803 66 0 0.0 0.0 0.00 0.00 0.00 85 1018.2
20260902040403 65 0 0.0 0.0 0.00 0.00 0.00 86 1018.4
20260902040003 66 0 0.0 0.0 0.00 0.00 0.00 86 1018.3
20260902035816 66 0 0.0 0.0 0.00 0.00 0.00 85 1018.4
20260902035203 66 0 0.0 0.0 0.00 0.00 0.00 85 1018.3
20260902034803 66 0 0.0 0.0 0.00 0.00 0.00 86 1018.1
20260902034614 66 0 0.0 0.0 0.00 0.00 0.00 85 1018.2
20260902034003 66 0 0.0 0.0 0.00 0.00 0.00 84 1018.2
20260902033603 66 0 0.0 0.0 0.00 0.00 0.00 84 1018.2
20260902033203 66 0 0.0 0.0 0.00 0.00 0.00 84 1018.2
20260902033017 66 0 0.0 0.0 0.00 0.00 0.00 85 1018.1
20260902032616 66 0 0.0 0.0 0.00 0.00 0.00 85 1018.2
20260902032003 66 0 0.0 0.0 0.00 0.00 0.00 85 1018.2
20260902031603 66 0 0.0 0.0 0.00 0.00 0.00 85 1018.3
20260902031203 66 0 0.0 0.0 0.00 0.00 0.00 85 1018.2
20260902030803 66 0 0.0 0.0 0.00 0.00 0.00 85 1018.1
20260902030404 66 0 0.0 0.0 0.00 0.00 0.00 85 1018.3
20260902030003 66 0 0.0 0.0 0.00 0.00 0.00 85 1018.2
20260902025603 66 0 0.0 0.0 0.00 0.00 0.00 85 1018.0
20260902025203 66 0 0.0 0.0 0.00 0.00 0.00 85 1018.1
20260902024803 66 0 0.0 0.0 0.00 0.00 0.00 85 1018.2
20260902024615 66 0 0.0 0.0 0.00 0.00 0.00 85 1018.0
20260902024214 66 0 0.0 0.0 0.00 0.00 0.00 85 1018.2
20260902023814 66 0 0.0 0.0 0.00 0.00 0.00 85 1018.1
20260902023203 67 0 0.0 0.0 0.00 0.00 0.00 85 1018.2
20260902023012 67 0 0.0 0.0 0.00 0.00 0.00 84 1018.3
20260902022403 67 285 0.0 1.0 0.00 0.00 0.00 84 1018.1
20260902022003 67 285 0.0 1.0 0.00 0.00 0.00 84 1018.1
20260902021603 67 285 0.0 2.0 0.00 0.00 0.00 84 1018.0
20260902021203 67 278 0.0 2.0 0.00 0.00 0.00 84 1018.2
20260902021014 67 277 0.0 2.0 0.00 0.00 0.00 84 1018.3
20260902020403 67 274 0.0 2.0 0.00 0.00 0.00 84 1018.1
20260902020003 67 274 0.0 1.0 0.00 0.00 0.00 85 1018.2
20260902015603 67 274 0.0 1.0 0.00 0.00 0.00 85 1018.3
20260902015203 67 274 0.0 1.0 0.00 0.00 0.00 85 1018.1
20260902014803 67 274 0.0 1.0 0.00 0.00 0.00 84 1018.1
20260902014403 67 274 0.0 1.0 0.00 0.00 0.00 84 1018.1
20260902014003 67 274 0.0 1.0 0.00 0.00 0.00 84 1018.2
20260902013603 67 274 0.0 1.0 0.00 0.00 0.00 84 1018.1
20260902013203 67 274 0.0 1.0 0.00 0.00 0.00 83 1018.1
20260902012803 67 274 0.0 1.0 0.00 0.00 0.00 83 1018.3
20260902012403 67 274 0.0 2.0 0.00 0.00 0.00 83 1018.3
20260902012003 67 277 1.0 2.0 0.00 0.00 0.00 83 1018.1
20260902011603 67 279 0.0 2.0 0.00 0.00 0.00 83 1018.2
20260902011203 67 282 0.0 1.0 0.00 0.00 0.00 84 1018.1
20260902010803 67 282 0.0 1.0 0.00 0.00 0.00 84 1018.3
20260902010614 67 282 0.0 1.0 0.00 0.00 0.00 84 1018.2
20260902010003 67 0 0.0 0.0 0.00 0.00 0.00 84 1018.3
20260902005813 67 0 0.0 0.0 0.00 0.00 0.00 83 1018.1
20260902005203 67 283 0.0 1.0 0.00 0.00 0.00 83 1018.3
20260902005017 67 283 0.0 1.0 0.00 0.00 0.00 83 1018.2
20260902004403 67 283 0.0 1.0 0.00 0.00 0.00 82 1018.3
20260902004216 67 283 0.0 1.0 0.00 0.00 0.00 82 1018.4
20260902003603 67 282 0.0 1.0 0.00 0.00 0.00 82 1018.4
20260902003414 67 282 0.0 1.0 0.00 0.00 0.00 82 1018.3
20260902002803 67 0 0.0 0.0 0.00 0.00 0.00 82 1018.2
20260902002403 67 0 0.0 0.0 0.00 0.00 0.00 82 1018.3
20260902002003 67 0 0.0 0.0 0.00 0.00 0.00 82 1018.4
20260902001603 67 0 0.0 0.0 0.00 0.00 0.00 82 1018.4
20260902001203 68 0 0.0 0.0 0.00 0.00 0.00 81 1018.3
20260902000803 68 283 0.0 1.0 0.00 0.00 0.00 81 1018.3
20260902000615 68 283 0.0 1.0 0.00 0.00 0.00 81 1018.2
20260902000003 68 0 0.0 0.0 0.00 0.00 0.00 81 1018.4
20260901235603 68 283 0.0 1.0 0.00 0.00 0.00 80 1018.3
20260901235203 68 283 0.0 1.0 0.00 0.00 0.00 80 1018.3
20260901234803 68 283 0.0 2.0 0.00 0.00 0.00 79 1018.4
20260901234403 68 283 0.0 2.0 0.00 0.00 0.00 80 1018.3
20260901234003 68 284 0.0 2.0 0.00 0.00 0.00 81 1018.2
20260901233603 67 0 0.0 0.0 0.00 0.00 0.00 83 1018.5
20260901233203 67 0 0.0 0.0 0.00 0.00 0.00 84 1018.3
20260901232803 67 0 0.0 0.0 0.00 0.00 0.00 84 1018.2
20260901232403 67 0 0.0 0.0 0.00 0.00 0.00 84 1018.2
20260901232003 67 0 0.0 0.0 0.00 0.00 0.00 84 1018.3
20260901231604 67 0 0.0 0.0 0.00 0.00 0.00 83 1018.2
20260901231203 67 0 0.0 0.0 0.00 0.00 0.00 83 1018.1
20260901231016 68 0 0.0 0.0 0.00 0.00 0.00 83 1018.2
20260901230403 68 0 0.0 0.0 0.00 0.00 0.00 82 1018.1
20260901230004 68 0 0.0 0.0 0.00 0.00 0.00 82 1018.0
20260901225603 68 0 0.0 0.0 0.00 0.00 0.00 82 1018.3
20260901225203 68 0 0.0 0.0 0.00 0.00 0.00 82 1018.1
20260901224803 68 0 0.0 0.0 0.00 0.00 0.00 82 1018.1
20260901224612 68 0 0.0 0.0 0.00 0.00 0.00 82 1018.2
20260901224003 68 0 0.0 0.0 0.00 0.00 0.00 82 1018.2
20260901223603 68 0 0.0 0.0 0.00 0.00 0.00 82 1018.1
20260901223203 68 0 0.0 0.0 0.00 0.00 0.00 82 1018.1
20260901222803 68 0 0.0 0.0 0.00 0.00 0.00 82 1018.2
20260901222403 68 0 0.0 0.0 0.00 0.00 0.00 81 1018.3
20260901222003 69 0 0.0 0.0 0.00 0.00 0.00 81 1018.2
20260901221603 69 0 0.0 0.0 0.00 0.00 0.00 81 1018.3
20260901221203 69 0 0.0 0.0 0.00 0.00 0.00 81 1018.2
20260901220804 70 0 0.0 0.0 0.00 0.00 0.00 78 1018.2
20260901220616 70 0 0.0 0.0 0.00 0.00 0.00 77 1018.2
20260901220004 70 0 0.0 0.0 0.00 0.00 0.00 77 1018.2
20260901215603 70 0 0.0 0.0 0.00 0.00 0.00 77 1018.2
20260901215203 69 0 0.0 0.0 0.00 0.00 0.00 79 1018.3
20260901214403 70 0 0.0 0.0 0.00 0.00 0.00 79 1018.2
20260901214003 70 0 0.0 0.0 0.00 0.00 0.00 78 1018.4
20260901213603 70 0 0.0 0.0 0.00 0.00 0.00 78 1018.1
20260901213416 70 0 0.0 0.0 0.00 0.00 0.00 78 1018.3
20260901213016 69 0 0.0 0.0 0.00 0.00 0.00 79 1018.2
20260901212403 70 0 0.0 0.0 0.00 0.00 0.00 80 1018.4
20260901212214 70 0 0.0 0.0 0.00 0.00 0.00 78 1018.2
20260901211603 69 0 0.0 0.0 0.00 0.00 0.00 78 1018.1
20260901211203 69 0 0.0 0.0 0.00 0.00 0.00 78 1018.1
20260901210803 70 0 0.0 0.0 0.00 0.00 0.00 79 1018.1
20260901210403 70 0 0.0 0.0 0.00 0.00 0.00 79 1018.1
20260901210004 70 0 0.0 0.0 0.00 0.00 0.00 78 1018.3
20260901205603 70 0 0.0 0.0 0.00 0.00 0.00 78 1018.3
20260901205203 70 0 0.0 0.0 0.00 0.00 0.00 78 1018.2
20260901204803 70 0 0.0 0.0 0.00 0.00 0.00 78 1018.0
20260901204403 70 67 0.0 2.0 0.00 0.00 0.00 77 1018.0
20260901204003 70 71 0.0 2.0 0.00 0.00 0.00 78 1018.1
20260901203603 70 75 0.0 2.0 0.00 0.00 0.00 78 1018.2
20260901203203 70 86 0.0 2.0 0.00 0.00 0.00 79 1018.0
20260901202803 70 86 0.0 2.0 0.00 0.00 0.00 80 1017.9